Location: Almena Post Office
(39.8928°N, 99.7066°W)
Time: 17:21:12
(UTC+00:00)

OAO 2 Rocket - Pass Details

Date: 27 February 2020
Orbit: 675 x 746 km, 35.0° (Epoch: 03 April)

Event Time Altitude Azimuth Distance (km) Brightness Sun altitude
Exits shadow 12:01:58 15° 228° (SW) 1,903 5.1 -14.9°
Maximum altitude 12:05:52 38° 165° (SSE) 1,097 4.4 -14.2°
Drops below altitude 10° 12:10:45 10° 98° (E) 2,242 7.4 -13.2°
Sets 12:13:20 0° 91° (E) 3,172 8.8 -12.7°
